User: anonymous   Login
Location: Auckland
(36.8670°S, 174.7670°E)
Time: 04:43:38
(UTC+12:00)
Language:

NOSS 2-1 (E) - Orbit

View from above orbital plane
View from above orbital plane
View from above satellite
View from above satellite

Ground track
Ground track

The orbit data is extracted from the following two-line orbital elements,

1 20642U 90050E   19134.94152955 0.00000070  00000-0  13043-4 0    01
2 20642  63.3344 187.9281 0844003  38.3107 321.6893 13.41878052    07
Epoch (UTC): 14 May 2019 22:35:48
Eccentricity: 0.0844003
inclination: 63.3344°
perigee height: 471 km
apogee height: 1733 km
right ascension of ascending node: 187.9281°
argument of perigee: 38.3107°
revolutions per day: 13.41878052
mean anomaly at epoch: 321.6893°
orbit number at epoch: 0

The dashed part of the orbit path shows where the satellite is in the earth's shadow,  

DLR